Location: Danville Conservation Area
(38.8674°N, 91.5143°W)
Time: 00:30:28
(UTC-06:00)

X-37B - Pass Details

Date: 04 December 2021
Orbit: 331 x 339 km, 45.0° (Epoch: 27 January)

Event Time Altitude Azimuth Distance (km) Brightness Sun altitude
Rises 17:50:15 0° 201° (SSW) 2,083 4.9 -12.6°
Reaches altitude 10° 17:52:55 10° 173° (S) 1,251 3.3 -13.1°
Maximum altitude 17:54:26 14° 140° (SE) 1,068 2.6 -13.4°
Enters shadow 17:54:49 13° 131° (SE) 1,082 2.5 -13.5°
